Terminal Aerodrome Forecast
Issued by NWS Twin Cities, MN

Home | Current Version | Previous Version | Graphics & Text | Print | Product List | Glossary On
Versions: 1 2 3 4 5 6 7 8 9 10 11 12 13
000
FTUS43 KMPX 151700 RRA
TAFSTC
TAF
KSTC 151741Z 1518/1618 33010KT P6SM BKN060
     FM160000 29004KT P6SM SKC
     FM161100 25007KT P6SM SKC=

USA.gov is the U.S. government's official web portal to all federal, state and local government web resources and services.